Year,Month,Day,Hour,Minute,Value (Times are PST for temperature in C)
2011,06,25,00,00,9.80
2011,06,25,00,01,9.80
2011,06,25,00,02,9.80
2011,06,25,00,03,9.80
2011,06,25,00,04,9.70
2011,06,25,00,05,9.70
2011,06,25,00,06,9.70
2011,06,25,00,07,9.70
2011,06,25,00,08,9.70
2011,06,25,00,09,9.70
2011,06,25,00,10,9.70
2011,06,25,00,11,9.70
2011,06,25,00,12,9.70
2011,06,25,00,13,9.70
2011,06,25,00,14,9.70
2011,06,25,00,15,9.70
2011,06,25,00,16,9.80
2011,06,25,00,17,9.80
2011,06,25,00,18,9.80
2011,06,25,00,19,9.80
2011,06,25,00,20,9.80
2011,06,25,00,21,9.80
2011,06,25,00,22,9.70
2011,06,25,00,23,9.70
2011,06,25,00,24,9.70
2011,06,25,00,25,9.70
2011,06,25,00,26,9.70
2011,06,25,00,27,9.60
2011,06,25,00,28,9.60
2011,06,25,00,29,9.60
2011,06,25,00,30,9.60
2011,06,25,00,31,9.60
2011,06,25,00,32,9.60
2011,06,25,00,33,9.60
2011,06,25,00,34,9.60
2011,06,25,00,35,9.60
2011,06,25,00,36,9.60
2011,06,25,00,37,9.60
2011,06,25,00,38,9.60
2011,06,25,00,39,9.70
2011,06,25,00,40,9.70
2011,06,25,00,41,9.70
2011,06,25,00,42,9.70
2011,06,25,00,43,9.70
2011,06,25,00,44,9.70
2011,06,25,00,45,9.70
2011,06,25,00,46,9.70
2011,06,25,00,47,9.70
2011,06,25,00,48,9.70
2011,06,25,00,49,9.80
2011,06,25,00,50,9.80
2011,06,25,00,51,9.80
2011,06,25,00,52,9.80
2011,06,25,00,53,9.80
2011,06,25,00,54,9.80
2011,06,25,00,55,9.80
2011,06,25,00,56,9.80
2011,06,25,00,57,9.80
2011,06,25,00,58,9.80
2011,06,25,00,59,9.70
2011,06,25,01,00,9.70
2011,06,25,01,01,9.70
2011,06,25,01,02,9.80
2011,06,25,01,03,9.80
2011,06,25,01,04,9.80
2011,06,25,01,05,9.80
2011,06,25,01,06,9.80
2011,06,25,01,07,9.80
2011,06,25,01,08,9.80
2011,06,25,01,09,9.80
2011,06,25,01,10,9.80
2011,06,25,01,11,9.80
2011,06,25,01,12,9.80
2011,06,25,01,13,9.80
2011,06,25,01,14,9.80
2011,06,25,01,15,9.80
2011,06,25,01,16,9.80
2011,06,25,01,17,9.80
2011,06,25,01,18,9.80
2011,06,25,01,19,9.80
2011,06,25,01,20,9.80
2011,06,25,01,21,9.80
2011,06,25,01,22,9.80
2011,06,25,01,23,9.80
2011,06,25,01,24,9.80
2011,06,25,01,25,9.80
2011,06,25,01,26,9.80
2011,06,25,01,27,9.80
2011,06,25,01,28,9.80
2011,06,25,01,29,9.90
2011,06,25,01,30,9.90
2011,06,25,01,31,9.90
2011,06,25,01,32,9.90
2011,06,25,01,33,9.90
2011,06,25,01,34,9.80
2011,06,25,01,35,9.80
2011,06,25,01,36,9.80
2011,06,25,01,37,9.80
2011,06,25,01,38,9.80
2011,06,25,01,39,9.80
2011,06,25,01,40,9.80
2011,06,25,01,41,9.80
2011,06,25,01,42,9.80
2011,06,25,01,43,9.80
2011,06,25,01,44,9.80
2011,06,25,01,45,9.90
2011,06,25,01,46,9.90
2011,06,25,01,47,9.90
2011,06,25,01,48,9.90
2011,06,25,01,49,9.90
2011,06,25,01,50,9.90
2011,06,25,01,51,10.00
2011,06,25,01,52,10.00
2011,06,25,01,53,10.00
2011,06,25,01,54,10.00
2011,06,25,01,55,10.00
2011,06,25,01,56,10.00
2011,06,25,01,57,10.00
2011,06,25,01,58,10.00
2011,06,25,01,59,10.00
2011,06,25,02,00,10.00
2011,06,25,02,01,10.00
2011,06,25,02,02,9.90
2011,06,25,02,03,9.90
2011,06,25,02,04,9.90
2011,06,25,02,05,9.90
2011,06,25,02,06,9.90
2011,06,25,02,07,10.00
2011,06,25,02,08,10.00
2011,06,25,02,09,10.00
2011,06,25,02,10,10.00
2011,06,25,02,11,10.00
2011,06,25,02,12,10.10
2011,06,25,02,13,10.10
2011,06,25,02,14,10.00
2011,06,25,02,15,10.00
2011,06,25,02,16,10.00
2011,06,25,02,17,10.00
2011,06,25,02,18,10.10
2011,06,25,02,19,10.10
2011,06,25,02,20,10.10
2011,06,25,02,21,10.10
2011,06,25,02,22,10.10
2011,06,25,02,23,10.10
2011,06,25,02,24,10.10
2011,06,25,02,25,10.10
2011,06,25,02,26,10.00
2011,06,25,02,27,10.00
2011,06,25,02,28,10.00
2011,06,25,02,29,10.00
2011,06,25,02,30,9.90
2011,06,25,02,31,9.90
2011,06,25,02,32,9.90
2011,06,25,02,33,9.90
2011,06,25,02,34,9.90
2011,06,25,02,35,9.90
2011,06,25,02,36,9.90
2011,06,25,02,37,9.90
2011,06,25,02,38,9.80
2011,06,25,02,39,9.80
2011,06,25,02,40,9.80
2011,06,25,02,41,9.80
2011,06,25,02,42,9.90
2011,06,25,02,43,9.90
2011,06,25,02,44,9.90
2011,06,25,02,45,9.90
2011,06,25,02,46,9.90
2011,06,25,02,47,9.90
2011,06,25,02,48,9.90
2011,06,25,02,49,9.90
2011,06,25,02,50,9.90
2011,06,25,02,51,9.80
2011,06,25,02,52,9.80
2011,06,25,02,53,9.80
2011,06,25,02,54,9.80
2011,06,25,02,55,9.80
2011,06,25,02,56,9.80
2011,06,25,02,57,9.80
2011,06,25,02,58,9.80
2011,06,25,02,59,9.80
2011,06,25,03,00,9.80
2011,06,25,03,01,9.70
2011,06,25,03,02,9.70
2011,06,25,03,06,9.60
2011,06,25,03,07,9.60
2011,06,25,03,08,9.60
2011,06,25,03,09,9.60
2011,06,25,03,10,9.60
2011,06,25,03,11,9.50
2011,06,25,03,12,9.50
2011,06,25,03,13,9.50
2011,06,25,03,14,9.50
2011,06,25,03,15,9.50
2011,06,25,03,16,9.50
2011,06,25,03,17,9.50
2011,06,25,03,18,9.50
2011,06,25,03,19,9.50
2011,06,25,03,20,9.60
2011,06,25,03,21,9.60
2011,06,25,03,22,9.60
2011,06,25,03,23,9.60
2011,06,25,03,24,9.60
2011,06,25,03,25,9.60
2011,06,25,03,26,9.60
2011,06,25,03,27,9.60
2011,06,25,03,28,9.60
2011,06,25,03,29,9.60
2011,06,25,03,30,9.60
2011,06,25,03,31,9.50
2011,06,25,03,32,9.50
2011,06,25,03,33,9.50
2011,06,25,03,34,9.50
2011,06,25,03,35,9.60
2011,06,25,03,36,9.60
2011,06,25,03,37,9.60
2011,06,25,03,38,9.60
2011,06,25,03,39,9.60
2011,06,25,03,40,9.60
2011,06,25,03,41,9.60
2011,06,25,03,42,9.60
2011,06,25,03,43,9.60
2011,06,25,03,44,9.60
2011,06,25,03,45,9.70
2011,06,25,03,46,9.70
2011,06,25,03,47,9.70
2011,06,25,03,48,9.70
2011,06,25,03,49,9.70
2011,06,25,03,50,9.70
2011,06,25,03,51,9.70
2011,06,25,03,52,9.70
2011,06,25,03,53,9.70
2011,06,25,03,54,9.70
2011,06,25,03,55,9.70
2011,06,25,03,56,9.70
2011,06,25,03,57,9.70
2011,06,25,03,58,9.70
2011,06,25,03,59,9.70
2011,06,25,04,00,9.70
2011,06,25,04,01,9.70
2011,06,25,04,02,9.70
2011,06,25,04,03,9.70
2011,06,25,04,04,9.70
2011,06,25,04,05,9.70
2011,06,25,04,06,9.70
2011,06,25,04,07,9.70
2011,06,25,04,08,9.70
2011,06,25,04,09,9.70
2011,06,25,04,10,9.70
2011,06,25,04,11,9.70
2011,06,25,04,12,9.70
2011,06,25,04,13,9.70
2011,06,25,04,14,9.70
2011,06,25,04,15,9.70
2011,06,25,04,16,9.70
2011,06,25,04,17,9.70
2011,06,25,04,18,9.70
2011,06,25,04,19,9.70
2011,06,25,04,20,9.70
2011,06,25,04,21,9.70
2011,06,25,04,22,9.70
2011,06,25,04,23,9.70
2011,06,25,04,24,9.70
2011,06,25,04,25,9.70
2011,06,25,04,26,9.70
2011,06,25,04,27,9.70
2011,06,25,04,28,9.70
2011,06,25,04,29,9.60
2011,06,25,04,30,9.60
2011,06,25,04,31,9.60
2011,06,25,04,32,9.60
2011,06,25,04,33,9.70
2011,06,25,04,34,9.70
2011,06,25,04,35,9.70
2011,06,25,04,36,9.70
2011,06,25,04,37,9.70
2011,06,25,04,38,9.70
2011,06,25,04,39,9.70
2011,06,25,04,40,9.70
2011,06,25,04,41,9.70
2011,06,25,04,42,9.70
2011,06,25,04,43,9.70
2011,06,25,04,44,9.70
2011,06,25,04,45,9.70
2011,06,25,04,46,9.70
2011,06,25,04,47,9.70
2011,06,25,04,48,9.60
2011,06,25,04,49,9.60
2011,06,25,04,50,9.60
2011,06,25,04,51,9.60
2011,06,25,04,52,9.60
2011,06,25,04,53,9.50
2011,06,25,04,54,9.50
2011,06,25,04,55,9.50
2011,06,25,04,56,9.40
2011,06,25,04,57,9.40
2011,06,25,04,58,9.40
2011,06,25,04,59,9.40
2011,06,25,05,00,9.30
2011,06,25,05,01,9.30
2011,06,25,05,02,9.30
2011,06,25,05,03,9.30
2011,06,25,05,04,9.30
2011,06,25,05,05,9.30
2011,06,25,05,06,9.30
2011,06,25,05,07,9.30
2011,06,25,05,08,9.30
2011,06,25,05,09,9.30
2011,06,25,05,10,9.30
2011,06,25,05,11,9.40
2011,06,25,05,12,9.40
2011,06,25,05,13,9.50
2011,06,25,05,14,9.60
2011,06,25,05,15,9.60
2011,06,25,05,16,9.60
2011,06,25,05,17,9.70
2011,06,25,05,18,9.70
2011,06,25,05,19,9.70
2011,06,25,05,20,9.70
2011,06,25,05,21,9.70
2011,06,25,05,22,9.70
2011,06,25,05,23,9.70
2011,06,25,05,24,9.70
2011,06,25,05,25,9.70
2011,06,25,05,26,9.60
2011,06,25,05,27,9.60
2011,06,25,05,28,9.60
2011,06,25,05,29,9.60
2011,06,25,05,30,9.60
2011,06,25,05,31,9.70
2011,06,25,05,32,9.70
2011,06,25,05,33,9.70
2011,06,25,05,34,9.70
2011,06,25,05,35,9.70
2011,06,25,05,36,9.80
2011,06,25,05,37,9.80
2011,06,25,05,38,9.90
2011,06,25,05,39,9.90
2011,06,25,05,40,9.90
2011,06,25,05,41,9.90
2011,06,25,05,42,9.90
2011,06,25,05,43,9.90
2011,06,25,05,44,9.90
2011,06,25,05,45,9.90
2011,06,25,05,46,9.90
2011,06,25,05,47,9.90
2011,06,25,05,48,9.90
2011,06,25,05,49,9.90
2011,06,25,05,50,9.90
2011,06,25,05,51,9.90
2011,06,25,05,52,9.80
2011,06,25,05,53,9.80
2011,06,25,05,54,9.80
2011,06,25,05,55,9.80
2011,06,25,05,56,9.80
2011,06,25,05,57,9.80
2011,06,25,05,58,9.80
2011,06,25,05,59,9.80
2011,06,25,06,00,9.70
2011,06,25,06,01,9.70
2011,06,25,06,02,9.70
2011,06,25,06,03,9.70
2011,06,25,06,04,9.70
2011,06,25,06,05,9.70
2011,06,25,06,06,9.70
2011,06,25,06,07,9.70
2011,06,25,06,08,9.70
2011,06,25,06,09,9.70
2011,06,25,06,10,9.70
2011,06,25,06,11,9.70
2011,06,25,06,12,9.70
2011,06,25,06,13,9.70
2011,06,25,06,14,9.70
2011,06,25,06,15,9.70
2011,06,25,06,16,9.70
2011,06,25,06,17,9.60
2011,06,25,06,18,9.60
2011,06,25,06,19,9.60
2011,06,25,06,20,9.60
2011,06,25,06,21,9.60
2011,06,25,06,22,9.70
2011,06,25,06,23,9.70
2011,06,25,06,24,9.70
2011,06,25,06,25,9.70
2011,06,25,06,26,9.70
2011,06,25,06,27,9.70
2011,06,25,06,28,9.70
2011,06,25,06,29,9.70
2011,06,25,06,30,9.70
2011,06,25,06,31,9.80
2011,06,25,06,32,9.80
2011,06,25,06,33,9.80
2011,06,25,06,34,9.80
2011,06,25,06,35,9.80
2011,06,25,06,36,9.80
2011,06,25,06,37,9.80
2011,06,25,06,38,9.90
2011,06,25,06,39,9.90
2011,06,25,06,40,10.00
2011,06,25,06,41,10.00
2011,06,25,06,42,10.00
2011,06,25,06,43,10.10
2011,06,25,06,44,10.10
2011,06,25,06,45,10.10
2011,06,25,06,46,10.10
2011,06,25,06,47,10.10
2011,06,25,06,48,10.10
2011,06,25,06,49,10.20
2011,06,25,06,50,10.20
2011,06,25,06,51,10.20
2011,06,25,06,52,10.20
2011,06,25,06,53,10.20
2011,06,25,06,54,10.20
2011,06,25,06,55,10.20
2011,06,25,06,56,10.20
2011,06,25,06,57,10.20
2011,06,25,06,58,10.20
2011,06,25,06,59,10.30
2011,06,25,07,00,10.30
2011,06,25,07,01,10.30
2011,06,25,07,02,10.30
2011,06,25,07,03,10.30
2011,06,25,07,04,10.30
2011,06,25,07,05,10.30
2011,06,25,07,06,10.30
2011,06,25,07,07,10.30
2011,06,25,07,08,10.40
2011,06,25,07,09,10.40
2011,06,25,07,10,10.40
2011,06,25,07,11,10.40
2011,06,25,07,12,10.40
2011,06,25,07,13,10.40
2011,06,25,07,14,10.40
2011,06,25,07,15,10.40
2011,06,25,07,16,10.40
2011,06,25,07,17,10.40
2011,06,25,07,18,10.40
2011,06,25,07,19,10.40
2011,06,25,07,20,10.40
2011,06,25,07,21,10.40
2011,06,25,07,22,10.40
2011,06,25,07,23,10.40
2011,06,25,07,24,10.40
2011,06,25,07,25,10.40
2011,06,25,07,26,10.40
2011,06,25,07,27,10.40
2011,06,25,07,28,10.40
2011,06,25,07,29,10.40
2011,06,25,07,30,10.40
2011,06,25,07,31,10.40
2011,06,25,07,32,10.40
2011,06,25,07,33,10.50
2011,06,25,07,34,10.50
2011,06,25,07,35,10.50
2011,06,25,07,36,10.50
2011,06,25,07,37,10.50
2011,06,25,07,38,10.50
2011,06,25,07,39,10.50
2011,06,25,07,40,10.60
2011,06,25,07,41,10.60
2011,06,25,07,42,10.60
2011,06,25,07,43,10.60
2011,06,25,07,44,10.70
2011,06,25,07,45,10.70
2011,06,25,07,46,10.70
2011,06,25,07,47,10.70
2011,06,25,07,48,10.80
2011,06,25,07,49,10.80
2011,06,25,07,50,10.80
2011,06,25,07,51,10.80
2011,06,25,07,52,10.90
2011,06,25,07,53,10.90
2011,06,25,07,54,10.90
2011,06,25,07,55,10.90
2011,06,25,07,56,11.00
2011,06,25,07,57,11.00
2011,06,25,07,58,11.10
2011,06,25,07,59,11.10
2011,06,25,08,00,11.20
2011,06,25,08,01,11.20
2011,06,25,08,02,11.30
2011,06,25,08,03,11.30
2011,06,25,08,04,11.30
2011,06,25,08,05,11.40
2011,06,25,08,06,11.50
2011,06,25,08,07,11.50
2011,06,25,08,08,11.60
2011,06,25,08,09,11.60
2011,06,25,08,10,11.70
2011,06,25,08,11,11.80
2011,06,25,08,12,11.90
2011,06,25,08,13,11.90
2011,06,25,08,14,12.00
2011,06,25,08,15,12.10
2011,06,25,08,16,12.10
2011,06,25,08,17,12.20
2011,06,25,08,18,12.30
2011,06,25,08,19,12.30
2011,06,25,08,20,12.40
2011,06,25,08,21,12.50
2011,06,25,08,22,12.60
2011,06,25,08,23,12.60
2011,06,25,08,24,12.70
2011,06,25,08,25,12.70
2011,06,25,08,26,12.80
2011,06,25,08,27,12.80
2011,06,25,08,28,12.80
2011,06,25,08,29,12.80
2011,06,25,08,30,12.80
2011,06,25,08,31,12.90
2011,06,25,08,32,12.90
2011,06,25,08,33,12.90
2011,06,25,08,34,12.90
2011,06,25,08,35,12.90
2011,06,25,08,36,12.90
2011,06,25,08,37,13.00
2011,06,25,08,38,13.00
2011,06,25,08,39,13.10
2011,06,25,08,40,13.20
2011,06,25,08,41,13.20
2011,06,25,08,42,13.30
2011,06,25,08,43,13.40
2011,06,25,08,44,13.50
2011,06,25,08,45,13.50
2011,06,25,08,46,13.60
2011,06,25,08,47,13.60
2011,06,25,08,48,13.60
2011,06,25,08,49,13.60
2011,06,25,08,50,13.60
2011,06,25,08,51,13.70
2011,06,25,08,52,13.70
2011,06,25,08,53,13.70
2011,06,25,08,54,13.70
2011,06,25,08,55,13.80
2011,06,25,08,56,13.80
2011,06,25,08,57,13.80
2011,06,25,08,58,13.80
2011,06,25,08,59,13.90
2011,06,25,09,00,13.90
2011,06,25,09,01,13.90
2011,06,25,09,02,14.00
2011,06,25,09,03,14.00
2011,06,25,09,04,14.10
2011,06,25,09,05,14.10
2011,06,25,09,06,14.10
2011,06,25,09,07,14.10
2011,06,25,09,08,14.10
2011,06,25,09,09,14.10
2011,06,25,09,10,14.10
2011,06,25,09,11,14.20
2011,06,25,09,12,14.20
2011,06,25,09,13,14.20
2011,06,25,09,14,14.20
2011,06,25,09,15,14.30
2011,06,25,09,16,14.30
2011,06,25,09,17,14.30
2011,06,25,09,18,14.30
2011,06,25,09,19,14.30
2011,06,25,09,20,14.30
2011,06,25,09,21,14.30
2011,06,25,09,22,14.30
2011,06,25,09,23,14.30
2011,06,25,09,24,14.30
2011,06,25,09,25,14.30
2011,06,25,09,26,14.30
2011,06,25,09,27,14.30
2011,06,25,09,28,14.30
2011,06,25,09,29,14.30
2011,06,25,09,30,14.30
2011,06,25,09,31,14.30
2011,06,25,09,32,14.30
2011,06,25,09,33,14.30
2011,06,25,09,34,14.30
2011,06,25,09,35,14.30
2011,06,25,09,36,14.30
2011,06,25,09,37,14.30
2011,06,25,09,38,14.30
2011,06,25,09,39,14.30
2011,06,25,09,40,14.20
2011,06,25,09,41,14.20
2011,06,25,09,42,14.20
2011,06,25,09,43,14.20
2011,06,25,09,44,14.20
2011,06,25,09,45,14.20
2011,06,25,09,46,14.20
2011,06,25,09,47,14.20
2011,06,25,09,48,14.20
2011,06,25,09,49,14.20
2011,06,25,09,50,14.20
2011,06,25,09,51,14.20
2011,06,25,09,52,14.20
2011,06,25,09,53,14.20
2011,06,25,09,54,14.20
2011,06,25,09,55,14.20
2011,06,25,09,56,14.20
2011,06,25,09,57,14.20
2011,06,25,09,58,14.20
2011,06,25,09,59,14.20
2011,06,25,10,00,14.20
2011,06,25,10,01,14.20
2011,06,25,10,02,14.10
2011,06,25,10,03,14.10
2011,06,25,10,04,14.10
2011,06,25,10,05,14.10
2011,06,25,10,06,14.10
2011,06,25,10,07,14.10
2011,06,25,10,08,14.10
2011,06,25,10,09,14.20
2011,06,25,10,10,14.20
2011,06,25,10,11,14.20
2011,06,25,10,12,14.20
2011,06,25,10,13,14.30
2011,06,25,10,14,14.30
2011,06,25,10,15,14.40
2011,06,25,10,16,14.50
2011,06,25,10,17,14.50
2011,06,25,10,18,14.60
2011,06,25,10,19,14.60
2011,06,25,10,20,14.60
2011,06,25,10,21,14.60
2011,06,25,10,22,14.60
2011,06,25,10,23,14.60
2011,06,25,10,24,14.60
2011,06,25,10,25,14.60
2011,06,25,10,26,14.60
2011,06,25,10,27,14.60
2011,06,25,10,28,14.60
2011,06,25,10,29,14.60
2011,06,25,10,30,14.60
2011,06,25,10,31,14.60
2011,06,25,10,32,14.60
2011,06,25,10,33,14.60
2011,06,25,10,34,14.60
2011,06,25,10,35,14.70
2011,06,25,10,36,14.70
2011,06,25,10,37,14.70
2011,06,25,10,38,14.80
2011,06,25,10,39,14.90
2011,06,25,10,40,15.00
2011,06,25,10,41,15.00
2011,06,25,10,42,15.00
2011,06,25,10,43,15.00
2011,06,25,10,44,15.00
2011,06,25,10,45,15.00
2011,06,25,10,46,15.00
2011,06,25,10,47,15.00
2011,06,25,10,48,15.00
2011,06,25,10,49,15.00
2011,06,25,10,50,15.10
2011,06,25,10,51,15.20
2011,06,25,10,52,15.20
2011,06,25,10,53,15.20
2011,06,25,10,54,15.30
2011,06,25,10,55,15.30
2011,06,25,10,56,15.30
2011,06,25,10,57,15.40
2011,06,25,10,58,15.40
2011,06,25,10,59,15.50
2011,06,25,11,00,15.50
2011,06,25,11,01,15.50
2011,06,25,11,02,15.50
2011,06,25,11,03,15.50
2011,06,25,11,04,15.50
2011,06,25,11,05,15.50
2011,06,25,11,06,15.50
2011,06,25,11,07,15.50
2011,06,25,11,08,15.50
2011,06,25,11,09,15.50
2011,06,25,11,10,15.50
2011,06,25,11,11,15.50
2011,06,25,11,12,15.50
2011,06,25,11,13,15.50
2011,06,25,11,14,15.60
2011,06,25,11,15,15.60
2011,06,25,11,16,15.60
2011,06,25,11,17,15.60
2011,06,25,11,18,15.70
2011,06,25,11,19,15.70
2011,06,25,11,20,15.60
2011,06,25,11,21,15.60
2011,06,25,11,22,15.50
2011,06,25,11,23,15.50
2011,06,25,11,24,15.40
2011,06,25,11,25,15.40
2011,06,25,11,26,15.40
2011,06,25,11,27,15.40
2011,06,25,11,28,15.40
2011,06,25,11,29,15.40
2011,06,25,11,30,15.50
2011,06,25,11,31,15.50
2011,06,25,11,32,15.60
2011,06,25,11,33,15.60
2011,06,25,11,34,15.60
2011,06,25,11,35,15.60
2011,06,25,11,36,15.60
2011,06,25,11,37,15.70
2011,06,25,11,38,15.70
2011,06,25,11,39,15.70
2011,06,25,11,40,15.70
2011,06,25,11,41,15.80
2011,06,25,11,42,15.80
2011,06,25,11,43,15.90
2011,06,25,11,44,15.90
2011,06,25,11,45,16.00
2011,06,25,11,46,16.10
2011,06,25,11,47,16.20
2011,06,25,11,48,16.20
2011,06,25,11,49,16.20
2011,06,25,11,50,16.20
2011,06,25,11,51,16.20
2011,06,25,11,52,16.20
2011,06,25,11,53,16.20
2011,06,25,11,54,16.20
2011,06,25,11,55,16.20
2011,06,25,11,56,16.20
2011,06,25,11,57,16.10
2011,06,25,11,58,16.10
2011,06,25,11,59,16.00
2011,06,25,12,00,15.90
2011,06,25,12,01,15.90
2011,06,25,12,02,15.80
2011,06,25,12,03,15.80
2011,06,25,12,04,15.70
2011,06,25,12,05,15.70
2011,06,25,12,06,15.60
2011,06,25,12,07,15.60
2011,06,25,12,08,15.60
2011,06,25,12,09,15.60
2011,06,25,12,10,15.60
2011,06,25,12,11,15.60
2011,06,25,12,12,15.50
2011,06,25,12,13,15.50
2011,06,25,12,14,15.50
2011,06,25,12,15,15.50
2011,06,25,12,16,15.50
2011,06,25,12,17,15.50
2011,06,25,12,18,15.40
2011,06,25,12,19,15.50
2011,06,25,12,20,15.50
2011,06,25,12,21,15.50
2011,06,25,12,22,15.50
2011,06,25,12,23,15.40
2011,06,25,12,24,15.40
2011,06,25,12,25,15.40
2011,06,25,12,26,15.50
2011,06,25,12,27,15.50
2011,06,25,12,28,15.60
2011,06,25,12,29,15.60
2011,06,25,12,30,15.60
2011,06,25,12,31,15.60
2011,06,25,12,32,15.60
2011,06,25,12,33,15.60
2011,06,25,12,34,15.70
2011,06,25,12,35,15.70
2011,06,25,12,36,15.70
2011,06,25,12,37,15.70
2011,06,25,12,38,15.70
2011,06,25,12,39,15.70
2011,06,25,12,40,15.70
2011,06,25,12,41,15.70
2011,06,25,12,42,15.80
2011,06,25,12,43,15.80
2011,06,25,12,44,15.90
2011,06,25,12,45,15.90
2011,06,25,12,46,15.90
2011,06,25,12,47,15.80
2011,06,25,12,48,15.90
2011,06,25,12,49,15.90
2011,06,25,12,50,15.90
2011,06,25,12,51,15.80
2011,06,25,12,52,15.80
2011,06,25,12,53,15.80
2011,06,25,12,54,15.70
2011,06,25,12,55,15.70
2011,06,25,12,56,15.70
2011,06,25,12,57,15.70
2011,06,25,12,58,15.60
2011,06,25,12,59,15.60
2011,06,25,13,00,15.60
2011,06,25,13,01,15.60
2011,06,25,13,02,15.60
2011,06,25,13,03,15.60
2011,06,25,13,04,15.60
2011,06,25,13,05,15.60
2011,06,25,13,06,15.60
2011,06,25,13,07,15.60
2011,06,25,13,08,15.60
2011,06,25,13,09,15.60
2011,06,25,13,10,15.50
2011,06,25,13,11,15.50
2011,06,25,13,12,15.40
2011,06,25,13,13,15.40
2011,06,25,13,14,15.40
2011,06,25,13,15,15.40
2011,06,25,13,16,15.30
2011,06,25,13,17,15.30
2011,06,25,13,18,15.30
2011,06,25,13,19,15.30
2011,06,25,13,20,15.30
2011,06,25,13,21,15.30
2011,06,25,13,22,15.30
2011,06,25,13,23,15.30
2011,06,25,13,24,15.20
2011,06,25,13,25,15.20
2011,06,25,13,26,15.20
2011,06,25,13,27,15.20
2011,06,25,13,28,15.20
2011,06,25,13,29,15.20
2011,06,25,13,30,15.20
2011,06,25,13,31,15.20
2011,06,25,13,32,15.20
2011,06,25,13,33,15.20
2011,06,25,13,34,15.20
2011,06,25,13,35,15.10
2011,06,25,13,36,15.10
2011,06,25,13,37,15.10
2011,06,25,13,38,15.00
2011,06,25,13,39,15.00
2011,06,25,13,40,15.00
2011,06,25,13,41,15.00
2011,06,25,13,42,15.00
2011,06,25,13,43,15.00
2011,06,25,13,44,15.00
2011,06,25,13,45,15.00
2011,06,25,13,46,15.00
2011,06,25,13,47,15.00
2011,06,25,13,48,15.00
2011,06,25,13,49,15.00
2011,06,25,13,50,15.00
2011,06,25,13,51,15.00
2011,06,25,13,52,15.00
2011,06,25,13,53,15.00
2011,06,25,13,54,15.00
2011,06,25,13,55,15.00
2011,06,25,13,56,15.00
2011,06,25,13,57,15.00
2011,06,25,13,58,15.00
2011,06,25,13,59,15.00
2011,06,25,14,00,15.00
2011,06,25,14,01,15.10
2011,06,25,14,02,15.20
2011,06,25,14,03,15.20
2011,06,25,14,04,15.20
2011,06,25,14,05,15.30
2011,06,25,14,06,15.30
2011,06,25,14,07,15.30
2011,06,25,14,08,15.30
2011,06,25,14,09,15.30
2011,06,25,14,10,15.20
2011,06,25,14,11,15.20
2011,06,25,14,12,15.20
2011,06,25,14,13,15.20
2011,06,25,14,14,15.20
2011,06,25,14,15,15.20
2011,06,25,14,16,15.30
2011,06,25,14,17,15.30
2011,06,25,14,18,15.20
2011,06,25,14,19,15.30
2011,06,25,14,20,15.30
2011,06,25,14,21,15.30
2011,06,25,14,22,15.30
2011,06,25,14,23,15.30
2011,06,25,14,24,15.40
2011,06,25,14,25,15.50
2011,06,25,14,26,15.50
2011,06,25,14,27,15.60
2011,06,25,14,28,15.60
2011,06,25,14,29,15.70
2011,06,25,14,30,15.70
2011,06,25,14,31,15.70
2011,06,25,14,32,15.70
2011,06,25,14,33,15.80
2011,06,25,14,34,15.80
2011,06,25,14,35,15.80
2011,06,25,14,36,15.80
2011,06,25,14,37,15.80
2011,06,25,14,38,15.90
2011,06,25,14,39,15.90
2011,06,25,14,40,15.90
2011,06,25,14,41,16.00
2011,06,25,14,42,16.00
2011,06,25,14,43,16.00
2011,06,25,14,44,16.00
2011,06,25,14,45,16.00
2011,06,25,14,46,16.00
2011,06,25,14,47,16.10
2011,06,25,14,48,16.10
2011,06,25,14,49,16.20
2011,06,25,14,50,16.20
2011,06,25,14,51,16.20
2011,06,25,14,52,16.20
2011,06,25,14,53,16.20
2011,06,25,14,54,16.10
2011,06,25,14,55,16.10
2011,06,25,14,56,16.20
2011,06,25,14,57,16.20
2011,06,25,14,58,16.20
2011,06,25,14,59,16.20
2011,06,25,15,00,16.20
2011,06,25,15,01,16.20
2011,06,25,15,02,16.20
2011,06,25,15,03,16.30
2011,06,25,15,04,16.30
2011,06,25,15,05,16.40
2011,06,25,15,06,16.40
2011,06,25,15,07,16.40
2011,06,25,15,08,16.40
2011,06,25,15,09,16.40
2011,06,25,15,10,16.40
2011,06,25,15,11,16.40
2011,06,25,15,12,16.40
2011,06,25,15,13,16.40
2011,06,25,15,14,16.40
2011,06,25,15,15,16.40
2011,06,25,15,16,16.50
2011,06,25,15,17,16.50
2011,06,25,15,18,16.50
2011,06,25,15,19,16.50
2011,06,25,15,20,16.50
2011,06,25,15,21,16.40
2011,06,25,15,22,16.40
2011,06,25,15,23,16.40
2011,06,25,15,24,16.40
2011,06,25,15,25,16.40
2011,06,25,15,26,16.40
2011,06,25,15,27,16.40
2011,06,25,15,28,16.40
2011,06,25,15,29,16.40
2011,06,25,15,30,16.40
2011,06,25,15,31,16.50
2011,06,25,15,32,16.50
2011,06,25,15,33,16.50
2011,06,25,15,34,16.50
2011,06,25,15,35,16.50
2011,06,25,15,36,16.40
2011,06,25,15,37,16.40
2011,06,25,15,38,16.30
2011,06,25,15,39,16.30
2011,06,25,15,40,16.30
2011,06,25,15,41,16.30
2011,06,25,15,42,16.30
2011,06,25,15,43,16.40
2011,06,25,15,44,16.40
2011,06,25,15,45,16.50
2011,06,25,15,46,16.50
2011,06,25,15,47,16.50
2011,06,25,15,48,16.60
2011,06,25,15,49,16.60
2011,06,25,15,50,16.60
2011,06,25,15,51,16.70
2011,06,25,15,52,16.80
2011,06,25,15,53,16.80
2011,06,25,15,54,16.90
2011,06,25,15,55,16.90
2011,06,25,15,56,17.00
2011,06,25,15,57,17.10
2011,06,25,15,58,17.10
2011,06,25,15,59,17.20
2011,06,25,16,00,17.20
2011,06,25,16,01,17.20
2011,06,25,16,02,17.20
2011,06,25,16,03,17.20
2011,06,25,16,04,17.10
2011,06,25,16,05,17.10
2011,06,25,16,06,17.10
2011,06,25,16,07,17.00
2011,06,25,16,08,16.90
2011,06,25,16,09,16.90
2011,06,25,16,10,16.90
2011,06,25,16,11,16.90
2011,06,25,16,12,16.80
2011,06,25,16,13,16.80
2011,06,25,16,14,16.70
2011,06,25,16,15,16.70
2011,06,25,16,16,16.70
2011,06,25,16,17,16.70
2011,06,25,16,18,16.70
2011,06,25,16,19,16.80
2011,06,25,16,20,16.80
2011,06,25,16,21,16.70
2011,06,25,16,22,16.70
2011,06,25,16,23,16.80
2011,06,25,16,24,16.80
2011,06,25,16,25,16.80
2011,06,25,16,26,16.80
2011,06,25,16,27,16.90
2011,06,25,16,28,16.90
2011,06,25,16,29,16.90
2011,06,25,16,30,16.90
2011,06,25,16,31,16.80
2011,06,25,16,32,16.80
2011,06,25,16,33,16.80
2011,06,25,16,34,16.80
2011,06,25,16,35,16.80
2011,06,25,16,36,16.90
2011,06,25,16,37,16.90
2011,06,25,16,38,16.90
2011,06,25,16,39,16.90
2011,06,25,16,40,16.80
2011,06,25,16,41,16.80
2011,06,25,16,42,16.80
2011,06,25,16,43,16.80
2011,06,25,16,44,16.70
2011,06,25,16,45,16.70
2011,06,25,16,46,16.70
2011,06,25,16,47,16.70
2011,06,25,16,48,16.70
2011,06,25,16,49,16.60
2011,06,25,16,50,16.60
2011,06,25,16,51,16.60
2011,06,25,16,52,16.60
2011,06,25,16,53,16.60
2011,06,25,16,54,16.50
2011,06,25,16,55,16.50
2011,06,25,16,56,16.50
2011,06,25,16,57,16.40
2011,06,25,16,58,16.40
2011,06,25,16,59,16.40
2011,06,25,17,00,16.40
2011,06,25,17,01,16.40
2011,06,25,17,02,16.40
2011,06,25,17,03,16.40
2011,06,25,17,04,16.40
2011,06,25,17,05,16.40
2011,06,25,17,06,16.40
2011,06,25,17,07,16.40
2011,06,25,17,08,16.40
2011,06,25,17,09,16.40
2011,06,25,17,10,16.40
2011,06,25,17,11,16.40
2011,06,25,17,12,16.40
2011,06,25,17,13,16.40
2011,06,25,17,14,16.40
2011,06,25,17,15,16.40
2011,06,25,17,16,16.30
2011,06,25,17,17,16.30
2011,06,25,17,18,16.30
2011,06,25,17,19,16.30
2011,06,25,17,20,16.30
2011,06,25,17,21,16.30
2011,06,25,17,22,16.30
2011,06,25,17,23,16.30
2011,06,25,17,24,16.30
2011,06,25,17,25,16.30
2011,06,25,17,26,16.30
2011,06,25,17,27,16.30
2011,06,25,17,28,16.30
2011,06,25,17,29,16.30
2011,06,25,17,30,16.30
2011,06,25,17,31,16.20
2011,06,25,17,32,16.20
2011,06,25,17,33,16.20
2011,06,25,17,34,16.10
2011,06,25,17,35,16.10
2011,06,25,17,36,16.00
2011,06,25,17,37,16.00
2011,06,25,17,38,15.90